Location: Unspecified
(44.0704°N, 88.6889°W)
Time: 16:30:20
(UTC+02:00)

Vanguard 1 Rocket - All Passes

Search period start: 16 June 2019 00:00
Search period end: 26 June 2019 00:00
Orbit: 652 x 4224 km, 34.3° (Epoch: 15 June)

Date Brightness Start Highest point End Pass type
(mag) Time Alt. Az. Time Alt. Az. Time Alt. Az.
16 Jun - 01:11:03 10° SSW 01:21:16 23° SSE 01:27:55 10° ESE daylight
16 Jun - 03:38:03 10° SW 03:47:14 35° S 03:52:42 10° ESE daylight
16 Jun - 06:06:11 10° WSW 06:11:47 29° SSW 06:15:50 10° SE visible
16 Jun - 23:59:34 10° S 00:09:07 18° SSE 00:15:58 10° ESE daylight
17 Jun - 02:24:48 10° SW 02:35:51 33° SSE 02:42:18 10° ESE daylight
17 Jun - 04:53:24 10° WSW 05:01:05 36° S 05:05:53 10° ESE visible
17 Jun - 07:21:44 10° WSW 07:24:59 16° SSW 07:27:49 10° SSE visible
17 Jun - 22:50:40 10° SSE 22:56:37 12° SSE 23:01:36 10° SE daylight
18 Jun - 01:11:38 10° SSW 01:24:05 29° SSE 01:31:33 10° ESE daylight
18 Jun - 03:40:06 10° WSW 03:50:03 40° S 03:55:47 10° ESE daylight
18 Jun - 06:08:55 10° WSW 06:14:31 26° SSW 06:18:34 10° SE visible
18 Jun - 23:59:03 10° SSW 00:11:51 24° SSE 00:20:11 10° ESE daylight
19 Jun - 02:26:24 10° SW 02:38:40 39° S 02:45:29 10° ESE daylight
19 Jun - 04:55:52 10° WSW 05:03:52 36° SSW 05:08:47 10° SE visible
19 Jun - 07:25:18 10° WSW 07:27:34 13° SSW 07:29:37 10° S visible
19 Jun - 22:47:50 10° S 22:59:16 18° SSE 23:07:37 10° ESE daylight
20 Jun - 01:12:37 10° SW 01:26:50 36° SSE 01:34:54 10° ESE daylight
20 Jun - 03:42:16 10° WSW 03:52:52 43° S 03:58:48 10° ESE daylight
20 Jun - 06:11:44 10° WSW 06:17:10 23° SSW 06:21:07 10° SSE visible
20 Jun - 21:40:10 10° SSE 21:46:25 12° SE 21:51:49 10° SE daylight
20 Jun - 23:59:14 10° SSW 00:14:32 31° SSE 00:23:50 10° ESE daylight
21 Jun - 02:28:11 10° WSW 02:41:26 44° S 02:48:35 10° ESE daylight
21 Jun - 04:58:23 10° W 05:06:35 35° SSW 05:11:37 10° SE visible
21 Jun - 22:46:51 10° SSW 23:01:52 24° SSE 23:11:58 10° ESE daylight
22 Jun - 01:13:56 10° SW 01:29:33 42° SSE 01:38:05 10° E daylight
22 Jun - 03:44:31 10° WSW 03:55:37 44° S 04:01:44 10° ESE daylight
22 Jun - 06:14:41 10° WSW 06:19:44 20° SSW 06:23:29 10° SSE visible
22 Jun - 21:36:23 10° S 21:48:53 18° SE 21:58:29 10° ESE daylight
22 Jun - 23:59:55 10° SW 00:17:11 37° SSE 00:27:12 10° E daylight
23 Jun - 02:30:08 10° WSW 02:44:11 48° S 02:51:35 10° ESE daylight
23 Jun - 05:00:56 10° W 05:09:14 32° SSW 05:14:20 10° SE visible
23 Jun - 20:31:47 10° SSE 20:35:48 11° SE 20:39:33 10° SE daylight
23 Jun - 22:46:42 10° SSW 23:04:22 31° SSE 23:15:41 10° E daylight
24 Jun - 01:15:27 10° WSW 01:32:14 47° S 01:41:09 10° E daylight
24 Jun - 03:46:50 10° W 03:58:19 44° SSW 04:04:37 10° ESE daylight
24 Jun - 06:17:52 10° WSW 06:22:11 16° SW 06:25:33 10° S visible
24 Jun - 21:34:56 10° S 21:51:16 24° SE 22:03:04 10° E daylight
25 Jun - 00:00:56 10° SW 00:19:46 43° SSE 00:30:22 10° E daylight
25 Jun - 02:32:10 10° WSW 02:46:53 50° S 02:54:33 10° ESE daylight
25 Jun - 05:03:34 10° W 05:11:47 29° SSW 05:16:56 10° SSE visible
25 Jun - 20:25:48 10° S 20:38:03 16° SE 20:48:13 10° ESE daylight
25 Jun - 22:47:05 10° SSW 23:06:50 37° SSE 23:19:03 10° E daylight
